This is the latest recevied weather packets stored in our database for station/object W8CWV-13. If no packets are shown the sender has not sent any weather packets the latest 10 day(s).
| Time | Temp. | Humidity | Pressure | Rain* | Wind** | Luminosity | Snow |
|---|---|---|---|---|---|---|---|
| 1777551876 | 15° C | 100% | 1021.6 hPa | - | - | - | - |
| 1777551302 | 15° C | 100% | 1021.4 hPa | - | - | - | - |
| 1777550726 | 14.44° C | 100% | 1020.9 hPa | - | - | - | - |
| 1777550154 | 14.44° C | 100% | 1020.3 hPa | - | - | - | - |
| 1777549581 | 13.33° C | 100% | 1019.5 hPa | - | - | - | - |
| 1777549003 | 12.78° C | 100% | 1018.8 hPa | - | - | - | - |
| 1777548432 | 12.22° C | 100% | 1017.9 hPa | - | - | - | - |
| 1777547858 | 11.67° C | 100% | 1017.3 hPa | - | - | - | - |
| 1777547285 | 11.11° C | 100% | 1017.2 hPa | - | - | - | - |
| 1777546712 | 11.11° C | 100% | 1015.7 hPa | - | - | - | - |
| 1777546139 | 11.11° C | 100% | 1013.9 hPa | - | - | - | - |
| 1777545565 | 11.11° C | 100% | 1012.4 hPa | - | - | - | - |
| 1777544993 | 11.67° C | 100% | 1007.6 hPa | - | - | - | - |
| 1777544421 | 11.11° C | 100% | 1000.1 hPa | - | - | - | - |
| 1777543847 | 10.56° C | 100% | 997.2 hPa | - | - | - | - |
| 1777543268 | 9.44° C | 100% | 998.3 hPa | - | - | - | - |
| 1777542699 | 9.44° C | 100% | 999.5 hPa | - | - | - | - |
| 1777542129 | 9.44° C | 100% | 1000.5 hPa | - | - | - | - |
| 1777541557 | 9.44° C | 100% | 1001.5 hPa | - | - | - | - |
| 1777540980 | 10° C | 100% | 1002.8 hPa | - | - | - | - |
| 1777540411 | 10.56° C | 100% | 1003.7 hPa | - | - | - | - |
| 1777539833 | 10.56° C | 100% | 1004.2 hPa | - | - | - | - |
| 1777539263 | 11.11° C | 100% | 1004.3 hPa | - | - | - | - |
| 1777538694 | 11.11° C | 100% | 1003.9 hPa | - | - | - | - |
| 1777538117 | 10.56° C | 100% | 1003.2 hPa | - | - | - | - |
* Rain since midnight (hover to see other rain measurements)
** Current wind speed in m/s (hover to see current wind gust speed)